Time,TemperatureF,DewpointF,PressureIn,WindDirection,WindDirectionDegrees,WindSpeedMPH,WindSpeedGustMPH,Humidity,HourlyPrecipIn,Conditions,Clouds,dailyrainin,SolarRadiationWatts/m^2,SoftwareType,DateUTC
2013-03-03 00:01:00,44.0,30.0,-100.00,West,275,14.0,23.0,58,0.00,,,0.00,0.000000,,2013-03-03 08:01:00,
2013-03-03 00:11:00,44.0,30.0,-100.00,West,275,14.0,23.0,58,0.00,,,0.00,0.000000,,2013-03-03 08:11:00,
2013-03-03 00:21:00,44.0,30.0,-100.00,West,275,14.0,23.0,58,0.00,,,0.00,0.000000,,2013-03-03 08:21:00,
2013-03-03 00:30:00,39.0,28.0,-100.00,NW,306,8.0,14.0,64,0.00,,,0.00,0.000000,,2013-03-03 08:30:00,
2013-03-03 00:54:00,39.0,28.0,-100.00,NW,306,8.0,14.0,64,0.00,,,0.00,0.000000,,2013-03-03 08:54:00,
2013-03-03 01:01:00,39.0,28.0,-100.00,NW,306,8.0,14.0,64,0.00,,,0.00,0.000000,,2013-03-03 09:01:00,
2013-03-03 01:11:00,39.0,28.0,-100.00,NW,306,8.0,14.0,64,0.00,,,0.00,0.000000,,2013-03-03 09:11:00,
2013-03-03 01:21:00,39.0,28.0,-100.00,NW,306,8.0,14.0,64,0.00,,,0.00,0.000000,,2013-03-03 09:21:00,
2013-03-03 01:30:00,40.0,28.0,-100.00,West,279,12.0,16.0,62,0.00,,,0.00,0.000000,,2013-03-03 09:30:00,
2013-03-03 01:52:00,40.0,28.0,-100.00,West,279,12.0,16.0,62,0.00,,,0.00,0.000000,,2013-03-03 09:52:00,
2013-03-03 02:01:00,40.0,28.0,-100.00,West,279,12.0,16.0,62,0.00,,,0.00,0.000000,,2013-03-03 10:01:00,
2013-03-03 02:11:00,40.0,28.0,-100.00,West,279,12.0,16.0,62,0.00,,,0.00,0.000000,,2013-03-03 10:11:00,
2013-03-03 02:21:00,40.0,28.0,-100.00,West,279,12.0,16.0,62,0.00,,,0.00,0.000000,,2013-03-03 10:21:00,
2013-03-03 02:30:00,41.0,21.0,-100.00,WNW,288,16.0,25.0,45,0.00,,,0.00,0.000000,,2013-03-03 10:30:00,
2013-03-03 02:52:00,41.0,21.0,-100.00,WNW,288,16.0,25.0,45,0.00,,,0.00,0.000000,,2013-03-03 10:52:00,
2013-03-03 03:01:00,41.0,21.0,-100.00,WNW,288,16.0,25.0,45,0.00,,,0.00,0.000000,,2013-03-03 11:01:00,
2013-03-03 03:11:00,41.0,21.0,-100.00,WNW,288,16.0,25.0,45,0.00,,,0.00,0.000000,,2013-03-03 11:11:00,
2013-03-03 03:21:00,41.0,21.0,-100.00,WNW,288,16.0,25.0,45,0.00,,,0.00,0.000000,,2013-03-03 11:21:00,
2013-03-03 03:30:00,38.0,22.0,-100.00,WSW,247,13.0,18.0,53,0.00,,,0.00,0.000000,,2013-03-03 11:30:00,
2013-03-03 03:52:00,38.0,22.0,-100.00,WSW,247,13.0,18.0,53,0.00,,,0.00,0.000000,,2013-03-03 11:52:00,
2013-03-03 04:01:00,38.0,22.0,-100.00,WSW,247,13.0,18.0,53,0.00,,,0.00,0.000000,,2013-03-03 12:01:00,
2013-03-03 04:11:00,38.0,22.0,-100.00,WSW,247,13.0,18.0,53,0.00,,,0.00,0.000000,,2013-03-03 12:11:00,
2013-03-03 04:21:00,38.0,22.0,-100.00,WSW,247,13.0,18.0,53,0.00,,,0.00,0.000000,,2013-03-03 12:21:00,
2013-03-03 04:30:00,38.0,26.0,-100.00,WNW,284,16.0,25.0,61,0.00,,,0.00,0.000000,,2013-03-03 12:30:00,
2013-03-03 04:53:00,38.0,26.0,-100.00,WNW,284,16.0,25.0,61,0.00,,,0.00,0.000000,,2013-03-03 12:53:00,
2013-03-03 05:01:00,38.0,26.0,-100.00,WNW,284,16.0,25.0,61,0.00,,,0.00,0.000000,,2013-03-03 13:01:00,
2013-03-03 05:11:00,38.0,26.0,-100.00,WNW,284,16.0,25.0,61,0.00,,,0.00,0.000000,,2013-03-03 13:11:00,
2013-03-03 05:21:00,38.0,26.0,-100.00,WNW,284,16.0,25.0,61,0.00,,,0.00,0.000000,,2013-03-03 13:21:00,
2013-03-03 05:30:00,36.0,26.0,-100.00,West,264,15.0,22.0,68,0.00,,,0.00,0.000000,,2013-03-03 13:30:00,
2013-03-03 05:52:00,36.0,26.0,-100.00,West,264,15.0,22.0,68,0.00,,,0.00,0.000000,,2013-03-03 13:52:00,
2013-03-03 06:01:00,36.0,26.0,-100.00,West,264,15.0,22.0,68,0.00,,,0.00,0.000000,,2013-03-03 14:01:00,
2013-03-03 06:11:00,36.0,26.0,-100.00,West,264,15.0,22.0,68,0.00,,,0.00,0.000000,,2013-03-03 14:11:00,
2013-03-03 06:21:00,36.0,26.0,-100.00,West,264,15.0,22.0,68,0.00,,,0.00,0.000000,,2013-03-03 14:21:00,
2013-03-03 06:30:00,35.0,25.0,-100.00,WNW,294,7.0,18.0,67,0.00,,,0.00,0.000000,,2013-03-03 14:30:00,
2013-03-03 06:52:00,35.0,25.0,-100.00,WNW,294,7.0,18.0,67,0.00,,,0.00,0.000000,,2013-03-03 14:52:00,
2013-03-03 07:01:00,35.0,25.0,-100.00,WNW,294,7.0,18.0,67,0.00,,,0.00,0.000000,,2013-03-03 15:01:00,
2013-03-03 07:11:00,35.0,25.0,-100.00,WNW,294,7.0,18.0,67,0.00,,,0.00,0.000000,,2013-03-03 15:11:00,
2013-03-03 07:22:00,35.0,25.0,-100.00,WNW,294,7.0,18.0,67,0.00,,,0.00,0.000000,,2013-03-03 15:22:00,
2013-03-03 07:30:00,40.0,23.0,-100.00,West,269,11.0,18.0,50,0.00,,,0.00,65.000000,,2013-03-03 15:30:00,
2013-03-03 07:52:00,40.0,23.0,-100.00,West,269,11.0,18.0,50,0.00,,,0.00,65.000000,,2013-03-03 15:52:00,
2013-03-03 08:01:00,40.0,23.0,-100.00,West,269,11.0,18.0,50,0.00,,,0.00,65.000000,,2013-03-03 16:01:00,
2013-03-03 08:12:00,40.0,23.0,-100.00,West,269,11.0,18.0,50,0.00,,,0.00,65.000000,,2013-03-03 16:12:00,
2013-03-03 08:21:00,40.0,23.0,-100.00,West,269,11.0,18.0,50,0.00,,,0.00,65.000000,,2013-03-03 16:21:00,
2013-03-03 08:30:00,46.0,21.0,-100.00,West,277,18.0,27.0,37,0.00,,,0.00,170.000000,,2013-03-03 16:30:00,
2013-03-03 08:52:00,46.0,21.0,-100.00,West,277,18.0,27.0,37,0.00,,,0.00,170.000000,,2013-03-03 16:52:00,
2013-03-03 09:01:00,46.0,21.0,-100.00,West,277,18.0,27.0,37,0.00,,,0.00,170.000000,,2013-03-03 17:01:00,
2013-03-03 09:11:00,46.0,21.0,-100.00,West,277,18.0,27.0,37,0.00,,,0.00,170.000000,,2013-03-03 17:11:00,
2013-03-03 09:22:00,46.0,21.0,-100.00,West,277,18.0,27.0,37,0.00,,,0.00,170.000000,,2013-03-03 17:22:00,
2013-03-03 09:30:00,48.0,21.0,-100.00,West,271,21.0,36.0,34,0.00,,,0.00,263.000000,,2013-03-03 17:30:00,
2013-03-03 09:52:00,48.0,21.0,-100.00,West,271,21.0,36.0,34,0.00,,,0.00,263.000000,,2013-03-03 17:52:00,
2013-03-03 10:01:00,48.0,21.0,-100.00,West,271,21.0,36.0,34,0.00,,,0.00,263.000000,,2013-03-03 18:01:00,
2013-03-03 10:11:00,48.0,21.0,-100.00,West,271,21.0,36.0,34,0.00,,,0.00,263.000000,,2013-03-03 18:11:00,
2013-03-03 10:21:00,48.0,21.0,-100.00,West,271,21.0,36.0,34,0.00,,,0.00,263.000000,,2013-03-03 18:21:00,
2013-03-03 10:30:00,50.0,21.0,-100.00,WNW,284,16.0,22.0,31,0.00,,,0.00,328.000000,,2013-03-03 18:30:00,
2013-03-03 10:52:00,50.0,21.0,-100.00,WNW,284,16.0,22.0,31,0.00,,,0.00,328.000000,,2013-03-03 18:52:00,
2013-03-03 11:01:00,50.0,21.0,-100.00,WNW,284,16.0,22.0,31,0.00,,,0.00,328.000000,,2013-03-03 19:01:00,
2013-03-03 11:11:00,50.0,21.0,-100.00,WNW,284,16.0,22.0,31,0.00,,,0.00,328.000000,,2013-03-03 19:11:00,
2013-03-03 11:21:00,50.0,21.0,-100.00,WNW,284,16.0,22.0,31,0.00,,,0.00,328.000000,,2013-03-03 19:21:00,
2013-03-03 11:30:00,52.0,20.0,-100.00,WNW,287,21.0,30.0,28,0.00,,,0.00,368.000000,,2013-03-03 19:30:00,
2013-03-03 11:52:00,52.0,20.0,-100.00,WNW,287,21.0,30.0,28,0.00,,,0.00,368.000000,,2013-03-03 19:52:00,
2013-03-03 12:01:00,52.0,20.0,-100.00,WNW,287,21.0,30.0,28,0.00,,,0.00,368.000000,,2013-03-03 20:01:00,
2013-03-03 12:11:00,52.0,20.0,-100.00,WNW,287,21.0,30.0,28,0.00,,,0.00,368.000000,,2013-03-03 20:11:00,
2013-03-03 12:21:00,52.0,20.0,-100.00,WNW,287,21.0,30.0,28,0.00,,,0.00,368.000000,,2013-03-03 20:21:00,
2013-03-03 12:30:00,53.0,20.0,-100.00,NW,304,17.0,30.0,27,0.00,,,0.00,394.000000,,2013-03-03 20:30:00,
2013-03-03 12:53:00,53.0,20.0,-100.00,NW,304,17.0,30.0,27,0.00,,,0.00,394.000000,,2013-03-03 20:53:00,
2013-03-03 13:01:00,53.0,20.0,-100.00,NW,304,17.0,30.0,27,0.00,,,0.00,394.000000,,2013-03-03 21:01:00,
2013-03-03 13:11:00,53.0,20.0,-100.00,NW,304,17.0,30.0,27,0.00,,,0.00,394.000000,,2013-03-03 21:11:00,
2013-03-03 13:21:00,53.0,20.0,-100.00,NW,304,17.0,30.0,27,0.00,,,0.00,394.000000,,2013-03-03 21:21:00,
2013-03-03 13:30:00,54.0,18.0,-100.00,WNW,284,17.0,27.0,24,0.00,,,0.00,393.000000,,2013-03-03 21:30:00,
2013-03-03 13:52:00,54.0,18.0,-100.00,WNW,284,17.0,27.0,24,0.00,,,0.00,393.000000,,2013-03-03 21:52:00,
2013-03-03 14:01:00,54.0,18.0,-100.00,WNW,284,17.0,27.0,24,0.00,,,0.00,393.000000,,2013-03-03 22:01:00,
2013-03-03 14:11:00,54.0,18.0,-100.00,WNW,284,17.0,27.0,24,0.00,,,0.00,393.000000,,2013-03-03 22:11:00,
2013-03-03 14:21:00,54.0,18.0,-100.00,WNW,284,17.0,27.0,24,0.00,,,0.00,393.000000,,2013-03-03 22:21:00,
2013-03-03 14:30:00,54.0,18.0,-100.00,WNW,302,20.0,29.0,24,0.00,,,0.00,358.000000,,2013-03-03 22:30:00,
2013-03-03 14:52:00,54.0,18.0,-100.00,WNW,302,20.0,29.0,24,0.00,,,0.00,358.000000,,2013-03-03 22:52:00,
2013-03-03 15:01:00,54.0,18.0,-100.00,WNW,302,20.0,29.0,24,0.00,,,0.00,358.000000,,2013-03-03 23:01:00,
2013-03-03 15:11:00,54.0,18.0,-100.00,WNW,302,20.0,29.0,24,0.00,,,0.00,358.000000,,2013-03-03 23:11:00,
2013-03-03 15:21:00,54.0,18.0,-100.00,WNW,302,20.0,29.0,24,0.00,,,0.00,358.000000,,2013-03-03 23:21:00,
2013-03-03 15:30:00,53.0,17.0,-100.00,WNW,303,21.0,29.0,24,0.00,,,0.00,290.000000,,2013-03-03 23:30:00,
2013-03-03 15:52:00,53.0,17.0,-100.00,WNW,303,21.0,29.0,24,0.00,,,0.00,290.000000,,2013-03-03 23:52:00,
2013-03-03 16:01:00,53.0,17.0,-100.00,WNW,303,21.0,29.0,24,0.00,,,0.00,290.000000,,2013-03-04 00:01:00,
2013-03-03 16:11:00,53.0,17.0,-100.00,WNW,303,21.0,29.0,24,0.00,,,0.00,290.000000,,2013-03-04 00:11:00,
2013-03-03 16:21:00,53.0,17.0,-100.00,WNW,303,21.0,29.0,24,0.00,,,0.00,290.000000,,2013-03-04 00:21:00,
2013-03-03 16:30:00,51.0,18.0,-100.00,WNW,296,18.0,30.0,27,0.00,,,0.00,207.000000,,2013-03-04 00:30:00,
2013-03-03 16:52:00,51.0,18.0,-100.00,WNW,296,18.0,30.0,27,0.00,,,0.00,207.000000,,2013-03-04 00:52:00,
2013-03-03 17:01:00,51.0,18.0,-100.00,WNW,296,18.0,30.0,27,0.00,,,0.00,207.000000,,2013-03-04 01:01:00,
2013-03-03 17:11:00,51.0,18.0,-100.00,WNW,296,18.0,30.0,27,0.00,,,0.00,207.000000,,2013-03-04 01:11:00,
2013-03-03 17:21:00,51.0,18.0,-100.00,WNW,296,18.0,30.0,27,0.00,,,0.00,207.000000,,2013-03-04 01:21:00,
2013-03-03 17:30:00,47.0,20.0,-100.00,West,281,12.0,24.0,34,0.00,,,0.00,114.000000,,2013-03-04 01:30:00,
2013-03-03 17:52:00,47.0,20.0,-100.00,West,281,12.0,24.0,34,0.00,,,0.00,114.000000,,2013-03-04 01:52:00,
2013-03-03 18:01:00,47.0,20.0,-100.00,West,281,12.0,24.0,34,0.00,,,0.00,114.000000,,2013-03-04 02:01:00,
2013-03-03 18:11:00,47.0,20.0,-100.00,West,281,12.0,24.0,34,0.00,,,0.00,114.000000,,2013-03-04 02:11:00,
2013-03-03 18:22:00,47.0,20.0,-100.00,West,281,12.0,24.0,34,0.00,,,0.00,114.000000,,2013-03-04 02:22:00,
2013-03-03 18:30:00,43.0,22.0,-100.00,West,279,12.0,15.0,43,0.00,,,0.00,7.000000,,2013-03-04 02:30:00,
2013-03-03 18:52:00,43.0,22.0,-100.00,West,279,12.0,15.0,43,0.00,,,0.00,7.000000,,2013-03-04 02:52:00,
2013-03-03 19:01:00,43.0,22.0,-100.00,West,279,12.0,15.0,43,0.00,,,0.00,7.000000,,2013-03-04 03:01:00,
2013-03-03 19:11:00,43.0,22.0,-100.00,West,279,12.0,15.0,43,0.00,,,0.00,7.000000,,2013-03-04 03:11:00,
2013-03-03 19:21:00,43.0,22.0,-100.00,West,279,12.0,15.0,43,0.00,,,0.00,7.000000,,2013-03-04 03:21:00,
2013-03-03 19:30:00,41.0,21.0,-100.00,West,280,11.0,18.0,45,0.00,,,0.00,0.000000,,2013-03-04 03:30:00,
2013-03-03 19:52:00,41.0,21.0,-100.00,West,280,11.0,18.0,45,0.00,,,0.00,0.000000,,2013-03-04 03:52:00,
2013-03-03 20:01:00,41.0,21.0,-100.00,West,280,11.0,18.0,45,0.00,,,0.00,0.000000,,2013-03-04 04:01:00,
2013-03-03 20:11:00,41.0,21.0,-100.00,West,280,11.0,18.0,45,0.00,,,0.00,0.000000,,2013-03-04 04:11:00,
2013-03-03 20:22:00,41.0,21.0,-100.00,West,280,11.0,18.0,45,0.00,,,0.00,0.000000,,2013-03-04 04:22:00,
2013-03-03 20:30:00,42.0,21.0,-100.00,WNW,286,13.0,23.0,42,0.00,,,0.00,0.000000,,2013-03-04 04:30:00,
2013-03-03 20:52:00,42.0,21.0,-100.00,WNW,286,13.0,23.0,42,0.00,,,0.00,0.000000,,2013-03-04 04:52:00,
2013-03-03 21:01:00,42.0,21.0,-100.00,WNW,286,13.0,23.0,42,0.00,,,0.00,0.000000,,2013-03-04 05:01:00,
2013-03-03 21:11:00,42.0,21.0,-100.00,WNW,286,13.0,23.0,42,0.00,,,0.00,0.000000,,2013-03-04 05:11:00,
2013-03-03 21:22:00,42.0,21.0,-100.00,WNW,286,13.0,23.0,42,0.00,,,0.00,0.000000,,2013-03-04 05:22:00,
2013-03-03 21:30:00,38.0,22.0,-100.00,West,267,11.0,19.0,53,0.00,,,0.00,0.000000,,2013-03-04 05:30:00,
2013-03-03 21:52:00,38.0,22.0,-100.00,West,267,11.0,19.0,53,0.00,,,0.00,0.000000,,2013-03-04 05:52:00,
2013-03-03 22:01:00,38.0,22.0,-100.00,West,267,11.0,19.0,53,0.00,,,0.00,0.000000,,2013-03-04 06:01:00,
2013-03-03 22:11:00,38.0,22.0,-100.00,West,267,11.0,19.0,53,0.00,,,0.00,0.000000,,2013-03-04 06:11:00,
2013-03-03 22:21:00,38.0,22.0,-100.00,West,267,11.0,19.0,53,0.00,,,0.00,0.000000,,2013-03-04 06:21:00,
2013-03-03 22:30:00,37.0,22.0,-100.00,West,267,12.0,19.0,54,0.00,,,0.00,0.000000,,2013-03-04 06:30:00,
2013-03-03 22:52:00,37.0,22.0,-100.00,West,267,12.0,19.0,54,0.00,,,0.00,0.000000,,2013-03-04 06:52:00,
2013-03-03 23:01:00,37.0,22.0,-100.00,West,267,12.0,19.0,54,0.00,,,0.00,0.000000,,2013-03-04 07:01:00,
2013-03-03 23:11:00,37.0,22.0,-100.00,West,267,12.0,19.0,54,0.00,,,0.00,0.000000,,2013-03-04 07:11:00,
2013-03-03 23:21:00,37.0,22.0,-100.00,West,267,12.0,19.0,54,0.00,,,0.00,0.000000,,2013-03-04 07:21:00,
2013-03-03 23:30:00,34.0,22.0,-100.00,West,273,10.0,16.0,61,0.00,,,0.00,0.000000,,2013-03-04 07:30:00,
2013-03-03 23:52:00,34.0,22.0,-100.00,West,273,10.0,16.0,61,0.00,,,0.00,0.000000,,2013-03-04 07:52:00,